[[{"header":{"parameterUnit":"m.s-1","parameterCategory":1,"la1":30.2991,"la2":30.254,"lo1":-89.0895,"lo2":-89.0444,"dy":0.0017,"dx":0.0017,"nx":28,"ny":28,"refTime":"2025-05-20T03:00:00:Z","depth":0,"parameterNumber":2,"parameterNumberName":"U-component_of_WINDS"},"data":[0,0,0,0,0,0,0,0,0,0,0,0,0,0,0,0,0,0,0,0,0,0,0,0,0,0,0,0,0,0,0,0,0,0,0,0,0,0,0,0,0,0,0,0,0,0,0,0,0,0,0,0,0,0,0,0,0,0,-1.402,-1.402,0,-1.403,-1.403,-1.403,-1.4013,-1.4012,-1.4012,-1.4011,-1.4021,-1.4022,-1.4023,0,0,0,0,0,0,0,0,0,0,0,0,0,-1.399,-1.399,-1.402,-1.402,-1.4021,-1.403,-1.403,-1.403,-1.4013,-1.4012,-1.4012,-1.4011,-1.4021,-1.4022,-1.4023,0,0,0,0,0,0,0,0,0,0,0,0,0,-1.4001,-1.399,-1.402,-1.4013,-1.4013,-1.403,-1.403,-1.403,-1.4013,-1.4012,-1.4011,-1.4011,-1.4021,-1.4022,-1.4023,-1.4048,0,0,-1.4027,-1.4027,0,0,0,0,0,0,0,0,-1.4001,-1.4003,-1.4014,-1.4014,-1.4013,-1.4019,-1.4023,-1.4036,-1.4013,-1.4013,-1.4011,-1.401,-1.4021,-1.4023,-1.4026,-1.4048,-1.4049,-1.4027,-1.4028,-1.4028,-1.4029,0,0,0,0,0,0,0,-1.4,-1.4002,-1.4024,-1.4014,-1.4014,-1.401,-1.4011,-1.4025,-1.4022,-1.4013,-1.4012,-1.4013,-1.4021,-1.4025,-1.4026,-1.4049,-1.4027,-1.4028,-1.4029,-1.4029,-1.4093,-1.4094,0,0,0,0,0,0,-1.4,-1.4001,-1.4024,-1.4024,-1.4005,-1.4011,-1.4012,-1.4018,-1.4022,-1.4021,-1.4014,-1.4012,-1.4023,-1.4025,-1.4027,-1.4057,-1.4028,-1.4029,-1.403,-1.4093,-1.4094,-1.4095,0,0,0,0,0,0,-1.3999,-1.4002,-1.4023,-1.4013,-1.4015,-1.4013,-1.402,-1.4019,-1.4023,-1.4022,-1.4022,-1.4018,-1.4023,-1.4025,-1.4043,-1.4057,-1.403,-1.4031,-1.4091,-1.4093,-1.4094,-1.4116,0,0,0,0,0,0,-1.3998,-1.4002,-1.4011,-1.4013,-1.4016,-1.4039,-1.402,-1.402,-1.4025,-1.4023,-1.4027,-1.4026,-1.4022,-1.4041,-1.4044,-1.4058,-1.4032,-1.409,-1.4092,-1.4094,-1.4114,-1.4118,-1.4122,0,0,0,0,0,-1.3997,-1.4016,-1.4011,-1.4014,-1.4026,-1.404,-1.4041,-1.4036,-1.4026,-1.4035,-1.4035,-1.4026,-1.4055,-1.4043,-1.4046,-1.4061,-1.4089,-1.4091,-1.4094,-1.4113,-1.4118,-1.4122,0,0,0,0,0,0,-1.4015,-1.4016,-1.4011,-1.4031,-1.4035,-1.4037,-1.4048,-1.4041,-1.4049,-1.4047,-1.4041,-1.4042,-1.4062,-1.4063,-1.405,-1.4086,-1.407,-1.4073,-1.4084,-1.4089,-1.4092,-1.4091,-1.4033,0,0,0,0,0,-1.4022,-1.4032,-1.4032,-1.405,-1.4053,-1.405,-1.4056,-1.4052,-1.4056,-1.4058,-1.4059,-1.4065,-1.4075,-1.4082,-1.4091,-1.4115,-1.4116,-1.4126,-1.413,-1.4133,-1.4136,-1.415,-1.4155,-1.4102,-1.4102,-1.4102,0,0,-1.4035,-1.4037,-1.4043,-1.4054,-1.4057,-1.4069,-1.4052,-1.4065,-1.4073,-1.406,-1.4078,-1.4079,-1.4084,-1.4106,-1.4115,-1.4108,-1.4151,-1.4136,-1.4138,-1.4139,-1.4153,-1.4158,-1.4162,-1.4104,-1.4103,-1.4103,0,0,-1.4065,-1.4067,-1.4082,-1.4086,-1.4091,-1.409,-1.4093,-1.4096,-1.4097,-1.4114,-1.4105,-1.4116,-1.4133,-1.4138,-1.4143,-1.4177,-1.4169,-1.418,-1.4199,-1.4213,-1.4217,-1.4221,-1.4234,-1.4238,-1.4182,-1.4183,-1.4183,0,-1.408,-1.4097,-1.4091,-1.4105,-1.411,-1.4099,-1.4116,-1.412,-1.4128,-1.4132,-1.4123,-1.4146,-1.4149,-1.4172,-1.4181,-1.4185,-1.419,-1.4179,-1.4217,-1.4221,-1.4224,-1.4236,-1.4241,-1.4184,-1.4184,-1.4184,-1.4183,0,-1.4116,-1.4128,-1.414,-1.4149,-1.4156,-1.4171,-1.4168,-1.4176,-1.4172,-1.4171,-1.419,-1.4193,-1.4204,-1.4209,-1.4205,-1.4232,-1.4227,-1.4218,-1.4202,-1.423,-1.4242,-1.4247,-1.4186,-1.4185,-1.4185,-1.4185,0,0,-1.4157,-1.4163,-1.4168,-1.4172,-1.4178,-1.4187,-1.4202,-1.4213,-1.422,-1.4226,-1.4239,-1.4255,-1.4247,-1.4253,-1.4249,-1.4261,-1.4289,-1.4251,-1.4251,-1.4258,-1.4321,-1.4328,-1.4334,-1.4284,-1.4285,-1.4286,-1.4321,0,-1.4187,-1.4213,-1.4209,-1.4234,-1.4246,-1.4237,-1.425,-1.4255,-1.4256,-1.4267,-1.4267,-1.4279,-1.4267,-1.4271,-1.4282,-1.4283,-1.4302,-1.4281,-1.4297,-1.4298,-1.4297,-1.434,-1.4347,-1.4379,-1.4325,-1.4326,-1.4326,0,-1.4226,-1.4234,-1.4261,-1.4266,-1.4271,-1.4283,-1.4293,-1.4303,-1.4309,-1.4309,-1.4316,-1.431,-1.4327,-1.4311,-1.4334,-1.432,-1.4327,-1.4329,-1.433,-1.4331,-1.4314,-1.4343,-1.439,-1.4395,-1.4333,-1.4333,-1.4332,0,-1.4254,-1.4272,-1.429,-1.4294,-1.43,-1.4309,-1.4312,-1.4318,-1.4325,-1.4334,-1.4339,-1.435,-1.4356,-1.4365,-1.4363,-1.4352,-1.4387,-1.4371,-1.4388,-1.4388,-1.4396,-1.4395,-1.4445,-1.4399,-1.4399,-1.4399,-1.4399,0,-1.4289,-1.4305,-1.4303,-1.4314,-1.4333,-1.4329,-1.4349,-1.4351,-1.4356,-1.4368,-1.4361,-1.4373,-1.4369,-1.4382,-1.438,-1.44,-1.4403,-1.4404,-1.4403,-1.4405,-1.4405,-1.4409,-1.4407,-1.44,-1.44,-1.44,-1.44,0,-1.4323,-1.4322,-1.4342,-1.4346,-1.4348,-1.4362,-1.4366,-1.4378,-1.4378,-1.4394,-1.4398,-1.4398,-1.4412,-1.4412,-1.4427,-1.4426,-1.4451,-1.4448,-1.4449,-1.4449,-1.4466,-1.4465,-1.452,-1.4528,-1.4477,-1.4477,-1.4478,0,-1.4345,-1.4358,-1.4365,-1.4372,-1.4376,-1.4389,-1.4396,-1.4393,-1.4401,-1.441,-1.4421,-1.4434,-1.4445,-1.4468,-1.447,-1.4482,-1.448,-1.4498,-1.4481,-1.4483,-1.4481,-1.4481,-1.4482,-1.4502,-1.4502,-1.4503,-1.4503,0,-1.4386,-1.4385,-1.4396,-1.4407,-1.4416,-1.4424,-1.4432,-1.4439,-1.4437,-1.4447,-1.4461,-1.4469,-1.4486,-1.4499,-1.4512,-1.4515,-1.451,-1.4509,-1.4513,-1.4515,-1.4516,-1.4517,-1.4459,-1.4507,-1.4507,-1.4507,-1.4506,-1.4506,-1.4415,-1.4427,-1.4434,-1.4446,-1.4452,-1.446,-1.4471,-1.4473,-1.4485,-1.4498,-1.4496,-1.4512,-1.452,-1.4535,-1.4541,-1.4554,-1.4547,-1.4554,-1.4556,-1.4558,-1.456,-1.4513,-1.4556,-1.4556,-1.4556,-1.4556,-1.4556,0,-1.4456,-1.446,-1.4472,-1.4483,-1.4494,-1.4487,-1.4496,-1.4505,-1.4519,-1.4527,-1.4538,-1.4555,-1.4569,-1.4573,-1.4586,-1.4596,-1.4594,-1.46,-1.4599,-1.46,-1.4565,-1.456,-1.4601,-1.4601,-1.4601,-1.4601,-1.4601,-1.4601,-1.4479,-1.4498,-1.4498,-1.4521,-1.4525,-1.4541,-1.4547,-1.4554,-1.456,-1.458,-1.4591,-1.4594,-1.46,-1.4614,-1.4627,-1.4628,-1.4634,-1.4641,-1.4641,-1.4607,-1.4603,-1.4598,-1.4594,-1.4642,-1.4642,-1.4676,-1.4676,-1.4676]},{"header":{"parameterUnit":"m.s-1","parameterCategory":1,"la1":30.2991,"la2":30.254,"lo1":-89.0895,"lo2":-89.0444,"dy":0.0017,"dx":0.0017,"nx":28,"ny":28,"refTime":"2025-05-20T03:00:00:Z","depth":0,"parameterNumber":3,"parameterNumberName":"V-component_of_WINDS"},"data":[0,0,0,0,0,0,0,0,0,0,0,0,0,0,0,0,0,0,0,0,0,0,0,0,0,0,0,0,0,0,0,0,0,0,0,0,0,0,0,0,0,0,0,0,0,0,0,0,0,0,0,0,0,0,0,0,0,0,4.761,4.761,0,4.7579,4.7579,4.7579,4.7516,4.7515,4.7513,4.7512,4.748,4.748,4.748,0,0,0,0,0,0,0,0,0,0,0,0,0,4.7614,4.7614,4.761,4.761,4.7609,4.758,4.7579,4.7579,4.7516,4.7515,4.7513,4.7512,4.7479,4.748,4.748,0,0,0,0,0,0,0,0,0,0,0,0,0,4.7601,4.7614,4.761,4.7574,4.7571,4.758,4.7579,4.7579,4.7517,4.7515,4.7513,4.7511,4.7479,4.748,4.748,4.752,0,0,4.7482,4.7482,0,0,0,0,0,0,0,0,4.7601,4.7601,4.758,4.7577,4.7573,4.755,4.7568,4.7559,4.7517,4.7537,4.7512,4.751,4.7504,4.7503,4.7501,4.7519,4.7518,4.7482,4.7482,4.7482,4.7482,0,0,0,0,0,0,0,4.7602,4.7602,4.7598,4.758,4.7576,4.756,4.7556,4.7566,4.7532,4.7535,4.7531,4.7528,4.7502,4.7501,4.75,4.7517,4.7482,4.7482,4.7482,4.7482,4.7569,4.757,0,0,0,0,0,0,4.7609,4.7603,4.7599,4.7597,4.7583,4.7561,4.7557,4.7559,4.7531,4.7525,4.753,4.7525,4.7501,4.7499,4.7498,4.7545,4.7482,4.7482,4.7483,4.7567,4.7569,4.7571,0,0,0,0,0,0,4.7609,4.7609,4.76,4.7599,4.7596,4.7563,4.7566,4.7559,4.7558,4.7527,4.752,4.7535,4.7499,4.7498,4.7516,4.7543,4.7483,4.7483,4.7564,4.7567,4.757,4.7637,0,0,0,0,0,0,4.7609,4.7609,4.7624,4.7599,4.7597,4.7618,4.7568,4.756,4.7559,4.7553,4.753,4.7524,4.7498,4.7516,4.7516,4.7542,4.7483,4.7562,4.7566,4.7569,4.7633,4.7642,4.7651,0,0,0,0,0,4.761,4.7644,4.7625,4.7625,4.7614,4.762,4.7618,4.7587,4.7561,4.7576,4.7557,4.7525,4.754,4.7518,4.7518,4.7545,4.756,4.7564,4.7569,4.7629,4.764,4.7651,0,0,0,0,0,0,4.7671,4.764,4.7619,4.7646,4.7636,4.7609,4.7627,4.7601,4.7598,4.7592,4.7553,4.7549,4.7573,4.756,4.7537,4.7583,4.7545,4.755,4.759,4.7601,4.761,4.7612,4.7484,0,0,0,0,0,4.7688,4.7696,4.7667,4.7694,4.769,4.766,4.7661,4.7638,4.7626,4.7622,4.7603,4.7593,4.7595,4.7598,4.7598,4.7631,4.7625,4.7649,4.7658,4.7666,4.767,4.7689,4.7699,4.7586,4.7586,4.7586,0,0,4.7723,4.7706,4.7713,4.7706,4.7696,4.7705,4.7657,4.7667,4.7674,4.7623,4.764,4.7626,4.7612,4.7639,4.7649,4.7629,4.7701,4.7672,4.7678,4.7678,4.7694,4.7705,4.7715,4.7589,4.7589,4.7588,0,0,4.779,4.7778,4.78,4.7791,4.7777,4.7757,4.7763,4.774,4.773,4.7746,4.7709,4.7716,4.772,4.7712,4.7709,4.7776,4.7747,4.7777,4.7824,4.7842,4.7851,4.7859,4.7884,4.7893,4.7782,4.7782,4.7782,0,4.7835,4.7847,4.7814,4.7828,4.7826,4.7783,4.7805,4.7798,4.7784,4.7784,4.7762,4.7768,4.7755,4.778,4.7797,4.7795,4.7801,4.7779,4.7853,4.786,4.7867,4.789,4.79,4.7786,4.7785,4.7785,4.7785,0,4.7903,4.7912,4.7931,4.792,4.7921,4.7939,4.7909,4.7914,4.7892,4.7874,4.7892,4.7876,4.7873,4.7877,4.7855,4.7899,4.7887,4.786,4.782,4.7882,4.7903,4.7912,4.7791,4.779,4.7789,4.7788,0,0,4.8006,4.798,4.7987,4.7983,4.7965,4.7971,4.7988,4.7986,4.7991,4.7984,4.7997,4.8003,4.7978,4.7974,4.7951,4.7967,4.8023,4.7937,4.7936,4.7955,4.8072,4.8094,4.8104,4.8004,4.8006,4.8007,4.8074,0,4.807,4.8097,4.8069,4.8102,4.8111,4.807,4.8085,4.8076,4.806,4.8065,4.8048,4.8054,4.802,4.8017,4.8031,4.8013,4.8046,4.8008,4.8016,4.8017,4.8021,4.8115,4.8137,4.8201,4.8082,4.8083,4.8084,0,4.8147,4.8146,4.8179,4.8162,4.8164,4.8178,4.8175,4.818,4.8169,4.8157,4.8155,4.8127,4.8143,4.8105,4.8126,4.8101,4.8103,4.8095,4.8096,4.8096,4.8054,4.8118,4.822,4.823,4.8097,4.8096,4.8095,0,4.8221,4.8227,4.8248,4.8245,4.8225,4.8236,4.8227,4.8215,4.8216,4.8214,4.8215,4.8214,4.8213,4.8213,4.8187,4.8162,4.8212,4.8172,4.8203,4.8203,4.8215,4.8214,4.8319,4.8216,4.8215,4.8215,4.8215,0,4.8295,4.8317,4.8281,4.8294,4.8319,4.8287,4.8312,4.83,4.829,4.83,4.8265,4.8276,4.824,4.8247,4.8226,4.8248,4.8248,4.8238,4.8233,4.8242,4.8243,4.8242,4.8237,4.8218,4.8217,4.8217,4.8216,0,4.8381,4.8357,4.8378,4.8358,4.8353,4.8372,4.8355,4.8367,4.835,4.8364,4.8365,4.8338,4.8345,4.8319,4.832,4.8307,4.8339,4.8326,4.8343,4.8339,4.8372,4.837,4.848,4.8494,4.8381,4.8382,4.8383,0,4.843,4.8446,4.8428,4.8433,4.8428,4.8436,4.8437,4.8408,4.8411,4.8402,4.8415,4.8419,4.842,4.8433,4.8413,4.8415,4.8402,4.8441,4.8402,4.8411,4.8403,4.8403,4.8405,4.8449,4.845,4.8451,4.8452,0,4.8519,4.8507,4.8511,4.8512,4.8516,4.8515,4.8511,4.8517,4.8485,4.8491,4.8498,4.8499,4.8502,4.8507,4.8505,4.8497,4.847,4.8465,4.8472,4.8482,4.8491,4.8488,4.8366,4.8462,4.8461,4.846,4.846,4.846,4.8588,4.8602,4.8592,4.8598,4.8593,4.8591,4.8602,4.8587,4.8593,4.8593,4.8576,4.8587,4.8577,4.8572,4.8567,4.8575,4.8557,4.8567,4.857,4.8573,4.8579,4.849,4.8575,4.8574,4.8574,4.8574,4.8573,0,4.8676,4.8669,4.8675,4.8672,4.8678,4.8653,4.8649,4.8655,4.8665,4.8659,4.8662,4.8671,4.8676,4.8658,4.8661,4.8671,4.8659,4.8673,4.8672,4.8671,4.8595,4.8589,4.8683,4.8683,4.8683,4.8683,4.8683,4.8683,4.8723,4.8745,4.8733,4.8753,4.8745,4.8756,4.8756,4.8754,4.875,4.8762,4.8766,4.8755,4.8745,4.8746,4.875,4.8745,4.8748,4.8766,4.8757,4.8686,4.8676,4.8666,4.866,4.8767,4.8767,4.8832,4.8833,4.8833]}]]